Regional Weather Roundup
Issued by NWS

Home | Current Version | Previous Version | Text Only | Print | Product List | Glossary Off
Versions: 1 2 3 4 5 6 7 8 9 10 11 12 13 14 15 16 17 18 19 20 21 22 23 24 25 26 27

000
ASUS45 KCYS 261410
RWRWY

WYOMING REGIONAL WEATHER ROUNDUP
NATIONAL WEATHER SERVICE CHEYENNE WY
800 AM MDT SUN MAR 26 2017

NOTE:  "FAIR" INDICATES FEW OR NO CLOUDS BELOW 12,000 FEET
WITH NO SIGNIFICANT WEATHER AND/OR OBSTRUCTIONS TO VISIBILITY.

WYZ001-261500-
YELLOWSTONE NATIONAL PARK

CITY           SKY/WX    TMP DP  RH WIND       PRES   REMARKS
LK YELLOWSTONE   N/A     19  18  95 NW3       30.00R
W YELLOWSTONE  NOT AVBL

$$
WYZ002>013-054>058-071-098>099-261500-
NORTHERN WYOMING

CITY           SKY/WX    TMP DP  RH WIND       PRES   REMARKS
JACKSON        NOT AVBL
CODY           FAIR      35  25  66 S3        29.96R
GREYBULL       FOG       31  30  96 SE5       29.95R VSB 1/4 WCI  26
WORLAND        FAIR      34  34 100 S7        29.96R WCI  28
SHERIDAN       FAIR      32  31  96 S6        29.95R WCI  26
BUFFALO        PTSUNNY   39  35  86 CALM      29.95R
GILLETTE       CLOUDY    39  37  92 NW9       29.93R WCI  33
HULETT         PTSUNNY   37  36  93 NE6       29.93R WCI  33
NEWCASTLE      LGT RAIN  39  37  93 NW6       29.86S WCI  35

$$
WYZ014>020-022>026-101>103-261500-
CENTRAL WYOMING

CITY           SKY/WX    TMP DP  RH WIND       PRES   REMARKS
BIG PINEY      FAIR      23  17  78 NW9       29.98F WCI  13
PINEDALE       FAIR      23  21  93 NW6       29.98F WCI  16
DUBOIS         FAIR      28  21  74 CALM      29.96S
LANDER         CLOUDY    36  34  92 S3        29.95R
RIVERTON       FAIR      35  33  92 W8        29.96R WCI  29
CASPER         CLOUDY    36  36 100 N7        29.95R WCI  30
DOUGLAS        MIX PCPN  36  34  92 NW13      29.93R WCI  27

$$
WYZ021-027>030-104>119-261500-
SOUTHERN WYOMING

CITY           SKY/WX    TMP DP  RH WIND       PRES   REMARKS
EVANSTON       MOCLDY    26  23  88 SW6       30.01S FOG     WCI  19
FORT BRIDGER   FAIR      30  27  90 W8        30.04R WCI  22
ROCK SPRINGS   FAIR      31  26  82 W6        30.00R WCI  25
DIXON            N/A     33  32  94 W5        30.01R WCI  29
RAWLINS        CLOUDY    34  32  92 NW9       29.95R WCI  27
SARATOGA       LGT RAIN  34  34 100 NW10      29.95R WCI  26
LARAMIE        CLOUDY    34  33  96 CALM      29.88R
CHEYENNE       CLOUDY    39  33  79 N14G21    29.87R WCI  31
TORRINGTON     CLOUDY    44  34  67 N14G21    29.85R
PINE BLUFFS    CLOUDY    41  36  81 N12G20    29.86R

$$




USA.gov is the U.S. government's official web portal to all federal, state and local government web resources and services.